DW3590 Weather Reports


time (UTC)temp
C
wind
direction
speed
KPH
gust
KPH
rain 1hr
cm
rain 24hr
cm
rain mn
cm
humidity
%
barometer
mb
20260507101548 11 90 1.6 4.8 0.00 0.00 0.00 81 1015.4
20260507100044 11 90 0.0 4.8 0.00 0.00 0.00 81 1015.4
20260507094545 11 61 0.0 4.8 0.00 0.00 0.00 80 1015.4
20260507093043 11 61 1.6 4.8 0.00 0.00 0.00 78 1015.3
20260507091539 12 61 0.0 0.0 0.00 0.00 0.00 79 1015.5
20260507090036 12 61 0.0 0.0 0.00 0.00 0.00 78 1015.7
20260507084535 12 61 0.0 0.0 0.00 0.00 0.00 77 1015.7
20260507083027 13 61 0.0 1.6 0.00 0.00 0.00 76 1015.9
20260507081526 13 61 0.0 3.2 0.00 0.00 0.00 76 1015.9
20260507080022 13 61 0.0 3.2 0.00 0.00 0.00 75 1016.0
20260507074520 13 65 0.0 1.6 0.00 0.00 0.00 76 1016.0
20260507073016 13 65 0.0 1.6 0.00 0.00 0.00 76 1016.0
20260507071513 13 65 1.6 3.2 0.00 0.00 0.00 74 1016.2
20260507070018 13 24 0.0 3.2 0.00 0.00 0.00 74 1016.3
20260507064512 13 24 3.2 6.4 0.00 0.00 0.00 72 1016.4
20260507063013 14 22 3.2 4.8 0.00 0.00 0.00 70 1016.6
20260507061510 15 36 1.6 4.8 0.00 0.00 0.00 70 1016.3
20260507060009 15 136 1.6 3.2 0.00 0.00 0.00 70 1016.4
20260507054508 15 136 0.0 9.7 0.00 0.00 0.00 69 1016.4
20260507053007 15 150 6.4 11.3 0.00 0.00 0.00 69 1016.5
20260507051507 16 142 3.2 8.0 0.00 0.00 0.00 67 1016.4
20260507050006 16 103 0.0 3.2 0.00 0.00 0.00 66 1016.4
20260507044513 16 163 6.4 12.9 0.00 0.00 0.00 67 1016.5
20260507043005 16 142 8.0 16.1 0.00 0.00 0.00 66 1016.3
20260507041505 16 150 9.7 17.7 0.00 0.00 0.00 66 1016.1
20260507040007 17 147 6.4 16.1 0.00 0.00 0.00 64 1016.0
20260507034504 17 132 11.3 17.7 0.00 0.00 0.00 63 1015.8
20260507033003 17 143 8.0 19.3 0.00 0.00 0.00 63 1015.5
20260507031502 18 146 8.0 14.5 0.00 0.00 0.00 62 1015.3
20260507030002 18 140 12.9 19.3 0.00 0.00 0.00 61 1015.0
20260507024501 18 158 12.9 22.5 0.00 0.00 0.00 60 1015.1
20260507023002 19 166 11.3 22.5 0.00 0.00 0.00 59 1015.1
20260507021600 20 161 17.7 24.1 0.00 0.00 0.00 57 1014.9
20260507020104 21 168 14.5 22.5 0.00 0.00 0.00 53 1014.7
20260507014559 23 167 6.4 9.7 0.00 0.00 0.00 48 1014.5
20260507013103 24 311 3.2 14.5 0.00 0.00 0.00 43 1014.4
20260507011559 24 335 4.8 17.7 0.00 0.00 0.00 42 1014.3
20260507010058 25 302 4.8 17.7 0.00 0.00 0.00 41 1014.2
20260507004600 25 284 8.0 22.5 0.00 0.00 0.00 40 1014.2
20260507003056 25 303 9.7 19.3 0.00 0.00 0.00 38 1014.2
20260507001557 25 11 9.7 24.1 0.00 0.00 0.00 38 1014.0
20260507000056 25 319 11.3 20.9 0.00 0.00 0.00 38 1013.7
20260506234556 26 303 6.4 17.7 0.00 0.00 0.00 36 1013.8
20260506233054 25 303 8.0 17.7 0.00 0.00 0.00 36 1014.0
20260506231553 26 311 9.7 24.1 0.00 0.00 0.00 35 1014.1
20260506230054 25 328 9.7 22.5 0.00 0.00 0.00 35 1014.2
20260506224602 26 32 6.4 16.1 0.00 0.00 0.00 34 1014.3
20260506223049 26 32 6.4 16.1 0.00 0.00 0.00 35 1014.5
20260506221547 26 304 3.2 16.1 0.00 0.00 0.00 34 1014.7
20260506220045 26 346 6.4 19.3 0.00 0.00 0.00 35 1014.9
20260506214558 25 319 11.3 19.3 0.00 0.00 0.00 35 1015.1
20260506213043 25 259 1.6 16.1 0.00 0.00 0.00 36 1015.2
20260506211538 25 346 3.2 12.9 0.00 0.00 0.00 36 1015.4
20260506210039 24 43 8.0 19.3 0.00 0.00 0.00 38 1015.6
20260506204533 24 17 9.7 20.9 0.00 0.00 0.00 38 1015.8
20260506203032 24 78 1.6 12.9 0.00 0.00 0.00 39 1015.9
20260506201526 24 215 1.6 16.1 0.00 0.00 0.00 39 1016.1
20260506200022 22 296 1.6 9.7 0.00 0.00 0.00 42 1016.5
20260506194519 22 271 6.4 14.5 0.00 0.00 0.00 42 1016.7
20260506193016 22 326 6.4 14.5 0.00 0.00 0.00 43 1016.8
20260506191512 21 325 1.6 9.7 0.00 0.00 0.00 45 1016.9
20260506190009 20 288 4.8 12.9 0.00 0.00 0.00 47 1017.2
20260506184507 20 296 4.8 12.9 0.00 0.00 0.00 47 1017.4
20260506183001 20 325 3.2 11.3 0.00 0.00 0.00 49 1017.6
20260506181600 19 243 1.6 11.3 0.00 0.00 0.00 51 1017.7
20260506180053 18 299 1.6 17.7 0.00 0.00 0.00 54 1017.9
20260506174549 18 314 8.0 14.5 0.00 0.00 0.00 52 1018.0
20260506173045 18 241 1.6 12.9 0.00 0.00 0.00 55 1017.9
20260506171551 17 32 3.2 14.5 0.00 0.00 0.00 58 1017.9
20260506170039 16 9 3.2 16.1 0.00 0.00 0.00 60 1017.9
20260506164533 16 348 3.2 9.7 0.00 0.00 0.00 59 1017.8
20260506163026 15 171 3.2 8.0 0.00 0.00 0.00 57 1017.8
20260506161522 15 175 3.2 11.3 0.00 0.00 0.00 60 1017.8
20260506160019 14 268 1.6 4.8 0.00 0.00 0.00 68 1017.9
20260506154513 13 73 0.0 4.8 0.00 0.00 0.00 75 1017.7
20260506153008 12 167 3.2 4.8 0.00 0.00 0.00 79 1017.8
20260506151504 11 232 3.2 6.4 0.00 0.00 0.00 85 1018.0
20260506150100 10 307 0.0 0.0 0.00 0.00 0.00 87 1017.7
20260506144602 10 312 0.0 4.8 0.00 0.00 0.00 88 1018.0
20260506143051 9 306 0.0 0.0 0.00 0.00 0.00 88 1017.8
20260506141548 8 93 0.0 0.0 0.00 0.00 0.00 88 1017.9
20260506140056 8 93 0.0 0.0 0.00 0.00 0.00 88 1017.8
20260506134542 7 93 0.0 0.0 0.00 0.00 0.00 88 1017.5
20260506133044 7 93 0.0 0.0 0.00 0.00 0.00 88 1017.3
20260506131535 7 93 0.0 0.0 0.00 0.00 0.00 88 1017.2
20260506130030 7 93 0.0 0.0 0.00 0.00 0.00 87 1017.1
20260506124527 7 93 0.0 0.0 0.00 0.00 0.00 87 1017.0
20260506123027 7 93 0.0 0.0 0.00 0.00 0.00 87 1016.9
20260506121525 7 111 0.0 1.6 0.00 0.00 0.00 87 1016.7
20260506120034 7 111 1.6 6.4 0.00 0.00 0.00 86 1016.8
20260506114520 7 76 0.0 0.0 0.00 0.03 0.00 86 1016.9
20260506113019 7 76 0.0 3.2 0.00 0.03 0.00 86 1016.9
20260506111517 7 76 0.0 4.8 0.00 0.03 0.00 85 1016.8
20260506110014 8 111 0.0 4.8 0.00 0.03 0.00 85 1016.6
20260506104512 8 136 0.0 0.0 0.00 0.03 0.00 84 1016.8
20260506103010 8 136 0.0 0.0 0.00 0.03 0.00 84 1016.8